Ana Sayfa
METAR-TAF:

METAR-TAF

Havaalanları :

Grosse Ile Municipal Airport

Detroit / Grosse Ile, Michigan, Amerika Birleşik Devletleri

Enlem: 42-05-55N, Boylam: 083-09-40W, yükseklik: 180 m

Güncel hava durumu gözlemi

Rapor saat 15:55 UTC de 34 dakika önce yapıldı.
Rüzgar güneydan 8 kt
Sıcaklık 25°C
Nem 83%
Basınç 1013 hPa
Görüş mesafesi: 16.1 km
1500 ft yükseklikte parçalı bulutlu

METAR: KONZ 211555Z AUTO 18008KT 10SM SCT015 25/22 A2992 RMK AO2 T02490218

Saat: 12:29 (16:29 UTC)


TAF: eksik

4.000'den fazla havaalanı için hava durumu gözlemleri ve tahminleri (METAR ve TAF raporları).

Kullanılabilir istasyonlar harita üzerinde sarı ve kırmızı noktalarla gösterilir.

İstasyonun adını görmek için fareyi noktanın üzerinde gezdirin.

Sonrasında hava gözlem ve tahminlerini görmek için tıklayın.

Haritayı değiştirmek için: yaklaştırmak için siyah artı işaretli yeşil düğmeye ve uzaklaştırmak için de eksi işaretli düğmeye hızla tıklayın; bitişik haritalar için yeşil okları kullanın.


METAR-TAF: